Temp
78 80 85 85 85 83 82 81 81 79 78 79 81 82 82 83 83 85 84 67 66 69 73 73 73 72 71 71 70 70 70 70 70 70 69 68 68 68 68 67 68 67 67
80 77 82 84 85 83 82 80 81 80 79 80 78 79 81 83 82 82 86 78 65 65 70 72 72 73 72 71 70 70 70 70 70 69 68 68 67 67 67 67 67 67 67
80 77 76 82 84 83 80 79 78 79 78 78 77 78 80 80 80 81 83 83 76 63 65 69 70 69 72 71 70 69 70 69 69 69 68 67 67 67 66 66 66 66 67
76 77 75 75 80 79 78 79 77 76 78 76 76 75 77 78 79 80 81 82 81 80 66 63 65 66 69 71 71 71 70 69 68 68 68 67 67 67 66 66 66 66 66
78 79 78 74 75 73 74 78 78 75 75 74 75 75 76 76 78 79 79 79 78 76 74 65 63 63 65 69 71 71 71 70 69 69 68 67 67 66 66 66 65 65 65
80 79 82 77 73 70 71 73 74 76 76 74 76 76 77 77 77 79 78 78 77 72 67 71 65 63 62 67 69 71 71 71 70 69 69 67 67 66 66 66 65 65 65
80 79 79 77 70 69 70 71 70 70 71 74 70 69 73 72 73 77 78 77 76 75 69 67 65 65 64 65 68 70 72 71 71 70 69 68 67 66 66 65 65 65 65
80 79 78 74 70 69 68 69 68 66 67 69 65 67 62 67 72 74 75 74 72 71 66 66 65 65 65 66 71 68 70 71 71 70 69 67 66 66 66 66 65 65 65
79 78 76 72 69 70 66 67 69 67 64 65 72 72 65 65 71 74 72 73 71 67 65 65 64 64 65 65 70 68 63 64 68 69 68 67 66 67 67 66 65 65 65
77 77 74 72 70 69 67 67 69 69 67 63 65 73 76 76 66 64 71 70 70 68 65 64 64 64 65 66 67 66 60 58 62 67 68 67 67 67 67 66 66 65 65
72 72 72 72 69 70 68 67 67 68 68 68 65 66 71 73 72 64 65 69 68 71 69 64 63 63 63 64 65 68 58 56 58 63 66 67 67 67 67 67 66 65 66
68 69 69 70 70 69 68 67 68 68 68 68 67 73 71 69 67 65 63 67 69 71 66 64 63 63 63 63 63 61 56 55 56 59 63 65 66 67 67 67 66 66 65
67 67 68 68 68 69 69 67 66 67 67 66 69 71 75 73 73 72 68 67 66 69 68 66 65 63 62 62 62 59 56 53 54 56 59 61 63 64 65 66 66 66 66
70 69 68 68 68 69 68 68 66 66 66 66 69 70 73 72 75 74 70 68 59 61 65 67 64 62 62 62 61 55 65 52 52 54 55 57 59 60 61 62 63 64 65
70 69 68 67 67 68 67 67 65 65 65 66 68 69 70 72 74 72 71 70 64 58 55 63 66 65 63 63 61 62 67 57 52 52 52 54 56 57 58 58 59 60 62
74 72 69 68 66 66 66 65 65 65 65 65 67 65 66 68 68 69 67 66 64 63 58 64 70 72 64 62 61 63 67 59 52 50 50 51 53 54 55 55 56 57 58
72 70 70 67 65 65 65 65 65 65 64 66 65 64 64 66 64 63 63 64 64 62 58 62 66 68 59 60 61 61 63 64 69 50 49 50 50 51 51 52 53 54 54
69 68 67 64 64 64 65 64 63 63 64 63 63 62 62 64 64 68 67 63 64 64 61 60 63 60 59 61 61 59 62 66 69 55 50 49 49 49 49 49 49 50 50
62 62 62 62 63 63 63 62 61 62 62 62 62 63 66 68 67 66 64 63 63 62 63 60 59 64 62 63 58 59 60 61 66 50 47 47 47 48 47 47 47 47 48
57 55 53 48 47 46 47 51 55 57 59 60 62 65 67 66 65 64 63 61 61 60 59 58 58 56 58 59 59 57 56 57 53 58 48 48 48 46 46 45 45 45 45
45 46 43 42 42 41 40 43 50 55 56 60 63 65 64 55 47 48 54 61 63 59 58 57 56 56 55 54 54 57 56 51 48 48 46 47 47 47 45 44 44 43 42
38 38 38 38 38 40 38 38 43 51 51 49 48 49 52 51 50 43 42 41 45 57 59 57 56 55 56 56 56 56 55 47 44 46 44 40 45 43 44 44 42 41 41
35 35 35 35 35 36 36 38 39 42 40 39 38 39 43 47 45 48 46 41 38 36 37 47 56 56 56 58 57 55 53 51 51 43 42 35 39 38 40 40 40 40 40
31 33 32 32 33 34 35 36 36 37 36 35 35 35 37 39 39 40 45 42 37 36 35 37 37 40 46 58 58 57 55 46 39 40 39 33 35 34 37 38 39 38 38
31 31 31 31 31 32 34 34 35 35 33 32 33 33 34 35 35 37 41 38 35 34 35 36 35 35 35 35 44 55 42 42 34 34 34 33 32 32 33 33 35 37 36
32 31 30 31 31 30 32 32 32 32 30 30 30 31 32 32 33 34 35 36 33 32 32 33 33 33 33 33 34 35 46 46 34 33 33 33 32 31 28 32 33 33 33
MSLP
1012.26 1012.26 1012.10 1012.54 1012.89 1013.55 1013.94 1014.27 1014.47 1015.13 1015.69 1016.01 1015.96 1016.07 1016.24 1016.19 1016.37 1016.70 1016.66 1017.92 1018.41 1018.62 1018.76 1019.21 1019.45 1019.86 1019.98 1020.47 1020.73 1020.98 1021.38 1021.65 1021.96 1022.39 1022.88 1023.31 1023.64 1023.88 1024.15 1024.41 1024.69 1024.92 1025.14
1011.53 1012.09 1011.97 1012.14 1012.29 1012.99 1013.32 1013.86 1014.21 1014.63 1015.11 1015.41 1015.92 1016.01 1015.99 1016.00 1016.47 1016.75 1016.36 1017.41 1018.23 1018.47 1018.41 1018.54 1018.82 1019.23 1019.69 1020.29 1020.63 1020.94 1021.31 1021.60 1021.87 1022.31 1022.80 1023.10 1023.59 1023.91 1024.19 1024.47 1024.79 1025.00 1025.15
1011.35 1011.67 1011.87 1011.89 1011.75 1012.31 1013.12 1013.68 1014.09 1014.35 1014.77 1015.08 1015.59 1015.78 1015.84 1016.09 1016.29 1016.36 1016.49 1016.58 1017.40 1018.24 1018.33 1018.55 1019.03 1019.29 1019.17 1020.03 1020.61 1020.92 1021.15 1021.53 1021.75 1022.19 1022.68 1022.98 1023.44 1023.91 1024.15 1024.49 1024.81 1024.95 1025.17
1011.14 1011.62 1011.59 1011.73 1011.81 1012.07 1012.83 1013.25 1013.78 1014.26 1014.51 1014.81 1015.17 1015.76 1015.92 1016.01 1016.05 1016.17 1016.29 1016.43 1016.80 1017.19 1018.34 1018.86 1019.02 1018.33 1019.15 1019.71 1020.15 1020.65 1020.99 1021.36 1021.63 1021.97 1022.45 1022.86 1023.23 1023.71 1024.12 1024.50 1024.73 1024.95 1025.22
1010.00 1010.38 1011.12 1011.45 1011.97 1012.49 1012.73 1012.95 1013.27 1013.78 1014.18 1014.48 1014.73 1015.27 1015.64 1015.83 1015.89 1015.99 1015.98 1016.18 1016.74 1017.23 1017.76 1018.55 1019.17 1019.38 1019.41 1019.59 1019.60 1020.16 1020.73 1021.07 1021.38 1021.69 1022.13 1022.66 1023.05 1023.51 1023.90 1024.37 1024.67 1024.90 1025.14
1008.90 1009.35 1009.81 1010.78 1011.43 1012.23 1012.45 1012.68 1012.96 1013.28 1013.63 1014.21 1014.42 1014.63 1014.94 1015.25 1015.57 1015.63 1015.71 1015.98 1016.37 1016.95 1017.42 1017.79 1018.66 1019.13 1018.85 1019.11 1019.29 1019.68 1020.26 1020.64 1020.91 1021.33 1021.83 1022.33 1022.82 1023.18 1023.69 1024.10 1024.50 1024.79 1025.03
1007.91 1008.61 1009.35 1010.13 1010.71 1011.26 1011.64 1012.15 1012.77 1013.19 1013.55 1013.87 1014.40 1014.62 1014.75 1015.16 1015.31 1015.28 1015.09 1015.36 1015.78 1016.23 1016.90 1017.36 1017.80 1017.95 1018.10 1018.56 1019.00 1019.15 1019.61 1019.95 1020.37 1020.79 1021.32 1021.89 1022.46 1022.95 1023.34 1023.82 1024.21 1024.57 1024.84
1006.96 1007.75 1008.17 1009.12 1009.65 1010.43 1011.40 1011.60 1012.09 1012.71 1013.30 1013.75 1013.99 1014.35 1014.37 1014.62 1014.65 1014.95 1015.03 1015.15 1015.53 1016.06 1016.57 1016.62 1017.07 1017.40 1017.50 1017.92 1018.18 1018.62 1018.94 1019.23 1019.73 1020.23 1020.78 1021.32 1021.94 1022.49 1022.97 1023.38 1023.78 1024.14 1024.45
1005.98 1006.58 1007.10 1008.16 1008.95 1009.57 1010.42 1011.01 1011.50 1011.79 1012.42 1013.15 1012.98 1012.93 1013.16 1012.63 1012.86 1013.53 1014.26 1014.52 1014.93 1015.54 1015.83 1015.96 1016.45 1016.83 1017.11 1017.35 1017.25 1017.92 1018.38 1018.68 1019.03 1019.73 1020.25 1020.77 1021.22 1021.77 1022.47 1022.96 1023.31 1023.61 1023.93
1005.20 1005.76 1006.58 1007.19 1007.96 1008.69 1009.48 1010.00 1010.64 1011.08 1011.69 1012.13 1012.89 1012.42 1011.81 1011.85 1012.32 1012.88 1013.78 1014.12 1014.44 1014.81 1015.22 1015.32 1015.75 1016.29 1016.49 1016.79 1016.72 1016.59 1017.46 1018.21 1018.56 1019.09 1019.60 1020.18 1020.67 1021.10 1021.74 1022.37 1022.78 1023.04 1023.33
1004.67 1005.20 1005.75 1006.53 1007.13 1007.64 1008.45 1009.12 1009.83 1010.40 1010.85 1011.23 1011.62 1011.97 1011.89 1012.01 1012.30 1012.65 1012.53 1013.00 1013.91 1014.05 1014.33 1014.92 1015.11 1015.53 1015.81 1016.09 1016.35 1015.88 1016.57 1017.47 1017.96 1018.49 1019.07 1019.46 1019.99 1020.51 1021.08 1021.72 1022.23 1022.53 1022.86
1003.80 1004.28 1004.84 1005.65 1006.33 1006.79 1007.57 1008.15 1008.92 1009.60 1010.09 1010.57 1010.98 1010.90 1011.01 1011.31 1011.47 1012.13 1012.43 1012.57 1012.62 1012.70 1013.71 1014.13 1014.41 1014.55 1014.95 1015.21 1015.41 1015.49 1016.05 1016.71 1017.36 1017.81 1018.33 1018.72 1019.25 1019.76 1020.23 1020.85 1021.51 1021.92 1022.24
1002.74 1003.32 1004.01 1004.66 1005.53 1006.00 1006.80 1007.65 1008.31 1008.87 1009.36 1009.96 1010.07 1010.17 1010.23 1010.45 1010.71 1011.15 1011.54 1011.75 1011.99 1011.95 1012.50 1013.25 1013.41 1013.67 1014.13 1014.47 1014.58 1015.11 1015.45 1016.07 1016.74 1017.14 1017.73 1018.11 1018.60 1019.09 1019.49 1020.01 1020.55 1021.10 1021.49
1001.85 1002.76 1003.28 1003.79 1004.59 1005.26 1006.03 1006.67 1007.45 1008.12 1008.73 1009.26 1009.39 1009.57 1009.57 1009.78 1010.07 1010.16 1010.59 1010.99 1011.69 1011.84 1011.95 1012.08 1012.73 1012.94 1013.30 1013.71 1013.97 1014.52 1014.80 1015.53 1016.05 1016.43 1016.92 1017.49 1017.97 1018.41 1018.85 1019.29 1019.70 1020.17 1020.60
1001.11 1002.05 1002.74 1003.37 1003.95 1004.54 1005.18 1005.89 1006.51 1007.37 1008.01 1008.35 1008.87 1009.07 1009.13 1009.02 1009.31 1009.80 1010.12 1010.58 1010.93 1011.05 1011.23 1011.48 1011.53 1012.20 1012.39 1012.87 1013.29 1013.70 1014.01 1014.43 1015.22 1015.55 1016.07 1016.63 1017.19 1017.63 1018.11 1018.57 1018.98 1019.38 1019.76
1000.23 1001.27 1002.04 1002.70 1003.36 1003.92 1004.54 1005.07 1005.89 1006.64 1007.27 1007.75 1008.15 1008.58 1008.74 1008.91 1009.24 1009.46 1009.83 1010.15 1010.45 1010.43 1010.08 1010.25 1010.15 1010.35 1011.61 1012.00 1012.30 1012.87 1012.82 1013.16 1014.02 1014.67 1015.23 1015.74 1016.25 1016.77 1017.29 1017.75 1018.23 1018.62 1019.00
1000.03 1000.77 1001.28 1002.06 1002.84 1003.40 1003.96 1004.54 1005.18 1005.86 1006.51 1007.07 1007.63 1007.99 1008.18 1008.56 1008.87 1009.22 1009.38 1009.50 1009.63 1009.90 1009.77 1009.52 1009.71 1010.01 1010.96 1011.33 1011.67 1011.92 1012.15 1012.43 1012.59 1013.70 1014.21 1014.68 1015.25 1015.78 1016.35 1016.87 1017.34 1017.83 1018.23
999.96 1000.72 1001.24 1001.89 1002.46 1003.14 1003.76 1004.26 1004.81 1005.50 1006.10 1006.69 1007.19 1007.52 1007.78 1008.11 1008.37 1008.39 1008.37 1008.69 1008.87 1009.06 1009.29 1008.82 1009.26 1009.78 1010.00 1010.33 1010.70 1011.12 1011.13 1011.29 1011.31 1012.05 1012.92 1013.59 1014.23 1014.77 1015.39 1015.91 1016.44 1016.96 1017.52
1000.72 1001.22 1001.49 1002.10 1002.69 1003.28 1003.96 1004.34 1004.77 1005.47 1006.05 1006.54 1006.97 1007.17 1007.32 1007.40 1007.51 1007.70 1007.88 1008.00 1008.12 1008.30 1008.20 1008.35 1008.24 1008.65 1008.99 1009.59 1009.93 1010.29 1010.34 1010.39 1010.44 1011.30 1012.10 1012.64 1013.40 1013.96 1014.53 1015.15 1015.68 1016.20 1016.77
1001.51 1002.21 1002.96 1003.93 1004.49 1005.27 1005.71 1005.66 1005.66 1005.89 1006.29 1006.71 1006.90 1006.97 1007.05 1007.27 1007.36 1007.51 1007.66 1007.63 1007.67 1007.51 1007.56 1007.58 1007.40 1007.86 1008.00 1008.49 1008.99 1009.26 1009.65 1009.72 1010.41 1011.22 1012.13 1012.27 1013.04 1013.62 1014.12 1014.64 1015.07 1015.59 1016.24
1004.21 1004.55 1004.95 1005.71 1006.32 1006.63 1007.29 1007.13 1006.69 1006.63 1006.77 1006.93 1006.91 1007.06 1007.23 1007.60 1007.93 1008.02 1007.95 1007.39 1007.11 1006.93 1006.95 1006.53 1006.71 1007.05 1007.11 1007.47 1007.63 1008.09 1008.75 1009.66 1010.63 1011.09 1012.15 1012.97 1013.17 1013.75 1014.29 1014.63 1014.98 1015.35 1015.97
1006.28 1006.45 1007.00 1007.71 1008.24 1008.33 1008.71 1007.79 1007.55 1007.01 1007.59 1008.02 1008.31 1008.45 1008.17 1008.11 1007.86 1007.92 1007.61 1007.47 1007.27 1006.77 1006.22 1006.10 1005.91 1005.80 1005.89 1006.07 1006.66 1006.97 1007.78 1009.15 1010.69 1011.07 1011.65 1013.21 1013.23 1013.99 1014.55 1014.94 1015.24 1015.60 1016.04
1008.61 1008.75 1009.06 1009.23 1009.58 1009.78 1009.39 1008.99 1008.27 1007.94 1008.97 1009.62 1009.88 1009.77 1009.38 1008.88 1008.65 1008.33 1007.51 1007.53 1007.20 1006.86 1006.66 1006.34 1005.08 1004.56 1004.63 1004.65 1005.23 1005.76 1006.47 1007.49 1008.47 1010.13 1010.87 1013.10 1013.74 1014.39 1014.71 1015.55 1015.96 1016.13 1016.51
1010.05 1010.56 1010.90 1011.27 1010.55 1011.08 1009.89 1009.72 1009.21 1009.42 1010.27 1010.82 1010.91 1010.86 1010.37 1009.98 1009.46 1008.76 1008.02 1008.20 1007.87 1007.47 1007.08 1006.61 1005.72 1005.26 1004.06 1003.36 1003.76 1003.87 1004.69 1006.88 1008.73 1009.77 1010.43 1012.77 1014.12 1014.87 1015.49 1015.94 1016.67 1017.02 1017.38
1011.49 1011.48 1011.69 1012.20 1012.06 1012.67 1011.91 1011.26 1010.65 1010.85 1011.41 1011.84 1011.75 1011.67 1011.49 1010.76 1010.03 1008.97 1008.49 1008.89 1008.59 1008.39 1008.23 1007.50 1006.93 1006.03 1005.35 1004.63 1003.59 1003.83 1005.27 1006.71 1008.65 1009.81 1010.37 1011.15 1014.10 1015.44 1015.98 1016.66 1017.06 1018.08 1017.93
1013.59 1014.01 1013.33 1014.31 1014.22 1013.90 1013.49 1012.86 1012.32 1012.20 1012.23 1012.87 1012.96 1012.55 1012.15 1011.66 1010.81 1010.07 1009.44 1009.32 1008.89 1009.40 1009.02 1008.13 1007.62 1006.73 1005.87 1005.76 1005.15 1004.60 1004.56 1005.39 1007.48 1009.34 1010.05 1010.48 1012.80 1014.20 1016.49 1017.21 1017.97 1018.01 1019.15
Wind_Speed
10 10 11 10 10 11 11 11 10 9 9 11 10 10 11 10 8 5 4 9 5 8 16 17 19 19 19 17 15 15 14 15 17 16 15 13 11 12 11 10 12 11 9
11 11 11 12 11 10 10 9 10 11 10 10 11 11 12 9 10 9 6 6 8 7 15 19 22 22 21 19 16 16 15 15 16 17 16 15 12 11 11 10 10 9 10
13 13 10 12 11 10 12 10 10 10 10 8 11 11 9 11 10 11 8 8 9 10 10 17 18 23 21 20 18 17 17 15 17 17 16 14 13 12 11 11 11 11 12
15 14 10 10 9 8 9 11 10 10 10 9 9 8 9 9 11 10 9 7 7 6 7 3 7 12 16 20 21 19 19 18 19 18 17 14 14 13 12 12 12 10 10
18 15 13 9 10 7 9 11 11 10 10 9 9 9 9 9 10 10 13 11 9 7 2 6 13 14 19 20 21 21 21 21 21 20 19 17 16 14 14 13 13 12 12
19 15 13 12 11 8 10 9 10 11 11 9 9 9 9 9 9 9 11 11 11 10 5 5 5 7 16 18 20 22 22 22 21 21 20 19 17 17 15 14 14 14 14
19 18 13 14 12 12 12 12 8 11 8 8 7 6 7 7 10 11 9 9 12 12 9 7 5 6 12 21 21 22 24 23 23 22 22 20 19 17 16 16 15 15 15
19 18 17 15 14 11 12 14 13 7 6 10 6 5 5 8 10 12 11 11 13 9 8 8 8 9 8 10 17 21 23 23 23 22 21 20 20 18 17 17 18 17 17
21 19 19 14 13 12 11 13 14 15 9 8 14 8 6 8 6 9 13 12 11 8 7 7 9 10 12 8 14 18 17 18 22 22 22 21 21 21 19 18 18 18 18
19 21 18 17 15 12 13 13 13 14 11 9 8 12 13 5 6 4 5 8 10 11 10 8 9 11 12 10 15 15 19 16 17 22 23 22 22 21 20 20 19 19 19
17 18 18 18 16 14 14 13 14 15 12 11 10 7 13 11 10 5 9 6 6 9 10 9 9 9 12 12 10 11 18 19 18 19 22 23 22 22 21 20 19 18 18
12 18 18 16 16 15 15 13 14 16 14 11 10 13 11 11 11 8 9 12 12 8 9 9 11 10 11 12 14 13 17 19 18 19 20 22 23 24 23 22 21 20 19
11 14 17 17 14 15 15 13 13 14 15 13 14 12 11 11 8 11 11 10 11 9 6 9 9 9 9 10 12 16 18 19 20 18 18 18 19 21 22 23 23 22 21
11 15 17 16 17 18 15 15 11 11 13 12 17 13 12 10 12 12 10 11 5 8 9 11 8 8 9 9 11 16 13 19 19 20 19 17 17 17 18 19 21 22 22
10 13 14 14 15 16 16 15 11 13 12 13 16 14 12 10 11 10 10 10 9 9 8 9 9 13 10 10 13 12 18 21 22 20 20 18 18 17 17 17 17 17 18
15 16 15 17 14 15 15 15 12 12 12 10 11 12 11 9 9 9 9 9 10 11 12 7 11 12 12 10 13 15 16 15 24 21 19 19 19 18 18 17 16 15 15
13 13 15 14 14 13 14 14 12 11 13 13 11 10 12 10 7 8 8 9 10 9 11 9 7 10 10 12 11 13 14 13 14 21 22 22 20 19 18 17 17 16 15
7 9 11 11 11 11 12 13 12 9 12 10 10 10 11 7 12 14 12 12 12 12 10 15 10 8 12 15 14 14 14 13 14 21 24 22 21 20 19 18 17 16 15
5 5 6 5 6 6 7 4 6 7 7 6 6 8 11 12 13 11 11 11 10 9 11 11 11 11 11 11 12 11 13 13 11 6 13 15 17 17 17 16 16 15 14
10 12 14 15 14 13 11 9 6 5 4 3 4 7 9 11 13 14 12 12 12 12 12 11 10 7 8 9 11 11 9 6 5 6 7 4 8 10 11 12 14 13 14
15 14 17 17 14 14 10 8 4 3 1 3 5 5 6 9 11 10 8 12 13 12 13 12 11 9 9 7 14 9 10 6 4 4 5 5 6 6 7 11 14 20 21
18 18 18 16 14 11 13 12 4 6 9 9 8 10 10 11 10 14 13 13 16 16 14 11 12 12 15 12 10 11 11 7 6 5 6 2 4 6 6 6 14 20 21
16 17 16 15 15 13 19 15 13 12 11 11 11 11 9 9 11 13 13 7 8 9 3 8 15 16 16 16 14 15 14 14 10 8 9 4 2 5 5 9 16 19 21
18 17 17 15 16 14 24 19 17 13 11 12 12 13 11 12 12 12 9 6 7 9 12 6 3 7 7 14 17 19 17 9 7 7 4 5 2 5 6 8 18 19 20
16 19 18 17 19 17 26 21 14 12 11 12 12 15 14 13 20 14 5 4 5 6 6 12 15 15 18 21 5 8 7 12 3 3 1 7 4 7 4 7 9 18 21
15 10 17 15 22 16 29 28 17 8 11 8 9 11 23 18 22 20 10 7 7 9 10 9 9 12 16 16 21 10 9 15 6 3 4 7 11 7 5 2 6 7 8
Wind_Direction
198 200 200 198 193 197 197 193 194 194 202 211 214 214 213 217 223 227 196 163 203 228 193 192 184 187 178 178 174 167 171 164 162 160 160 166 172 161 157 157 159 157 151
194 197 211 200 202 197 201 199 201 194 201 207 214 219 223 217 224 228 222 175 175 228 201 196 192 191 184 185 179 176 173 175 169 168 173 170 172 162 162 157 157 160 162
211 204 196 217 199 196 200 198 204 206 202 199 220 217 229 227 231 224 223 225 173 199 203 212 216 194 180 184 184 178 179 188 172 176 178 172 171 167 162 154 173 175 178
211 215 201 204 208 186 196 198 194 204 209 202 212 213 222 228 231 233 230 222 220 198 197 194 229 275 194 185 184 190 188 180 175 178 179 182 172 170 166 177 178 176 182
206 206 205 201 193 186 198 204 200 197 209 208 211 206 217 225 236 236 234 224 215 218 221 152 158 217 237 195 186 192 196 190 185 181 182 186 178 177 180 191 181 186 192
205 201 215 194 193 189 199 198 202 203 204 203 211 219 223 225 236 235 229 231 227 223 197 211 184 212 218 207 191 191 199 197 194 190 189 188 189 185 189 190 191 194 195
203 206 207 205 188 193 200 193 185 194 203 203 186 220 229 226 242 243 250 245 233 226 223 211 208 213 213 201 195 195 201 200 199 195 191 190 192 192 189 192 195 201 203
202 205 204 206 192 189 199 193 186 179 180 183 182 186 207 223 232 235 238 234 230 231 217 213 209 217 209 204 203 199 201 200 201 199 193 191 190 192 195 197 197 201 207
207 205 201 195 190 189 193 197 196 187 186 191 207 189 206 227 215 209 224 233 232 217 223 210 205 212 213 222 208 195 202 202 198 199 198 196 195 193 202 203 204 201 209
213 206 204 195 191 191 195 199 198 198 191 190 200 228 242 272 191 202 211 238 235 227 221 213 208 212 215 215 240 198 188 198 193 199 200 201 198 198 198 205 208 209 209
210 205 200 199 195 195 199 192 193 198 201 194 196 193 225 223 230 249 261 208 229 236 229 207 208 211 208 210 224 213 180 192 193 198 205 203 202 199 201 204 209 216 220
202 203 199 200 200 197 195 192 195 199 201 203 194 216 205 207 220 224 242 253 249 228 214 209 211 209 209 205 211 218 182 190 196 197 204 202 205 203 203 203 208 215 218
202 203 194 193 200 197 194 193 197 200 202 200 208 210 216 222 225 220 230 243 247 242 214 225 216 205 203 207 204 211 188 193 201 197 203 203 204 205 203 202 205 214 218
205 206 202 194 196 196 191 191 193 200 199 206 211 213 218 217 224 230 229 242 233 236 221 228 216 204 201 198 205 199 204 200 199 200 202 200 202 201 204 205 207 212 216
196 199 196 194 194 194 192 189 189 195 198 200 216 212 217 224 228 230 229 226 229 245 223 232 229 207 205 201 208 200 213 194 204 201 199 199 201 202 205 206 206 210 216
201 199 191 194 194 197 190 184 185 195 200 204 209 209 212 222 224 228 222 226 230 240 261 213 228 226 204 207 207 213 215 206 199 203 201 202 204 205 207 206 208 210 210
205 194 196 187 192 191 190 187 182 194 202 203 205 205 215 210 216 215 220 223 228 231 243 251 244 227 194 208 214 205 212 211 206 201 203 205 205 206 207 207 211 215 212
177 177 173 175 176 184 188 188 179 181 192 197 199 204 210 207 226 231 227 225 229 228 229 243 226 205 203 209 210 204 208 210 212 192 204 204 206 206 207 208 210 213 212
116 122 129 156 143 125 150 163 150 170 187 186 206 221 236 240 245 247 245 236 232 240 240 236 237 214 208 205 206 212 209 212 215 121 190 197 203 203 203 205 205 200 197
63 67 65 66 60 56 42 35 53 87 113 186 216 243 253 256 259 260 259 260 253 242 230 230 229 211 198 199 204 204 207 202 143 139 72 83 188 187 190 189 185 171 155
56 61 62 54 52 44 28 13 28 67 48 255 235 275 297 337 318 323 308 281 255 241 242 221 222 220 205 192 198 194 199 150 118 139 118 131 131 126 127 132 141 140 136
48 52 54 52 42 42 7 23 9 85 55 42 19 1 345 318 349 321 299 292 265 265 246 236 228 224 210 207 198 197 185 164 183 184 124 103 130 130 132 137 135 133 131
49 52 49 48 47 31 27 37 51 64 60 50 35 10 348 350 338 327 313 325 17 13 323 279 247 218 219 208 197 194 188 193 193 156 128 111 102 107 104 119 130 129 130
46 43 46 43 47 26 33 35 53 65 62 54 47 25 10 355 350 328 331 341 29 31 17 340 3 330 278 213 203 197 186 153 79 135 138 114 129 111 123 116 126 128 130
42 37 41 34 41 31 32 36 50 54 56 46 39 35 22 15 4 358 23 35 32 25 342 33 44 41 33 20 319 193 139 154 122 157 223 112 147 109 98 112 121 131 124
49 43 49 42 38 35 34 35 36 46 55 40 33 34 30 28 26 29 39 30 44 9 358 9 6 24 38 26 24 18 171 180 135 100 215 104 144 140 119 85 134 133 131